TimeACDT,TemperatureF,Dew PointF,Humidity,Sea Level PressureIn,VisibilityMPH,Wind Direction,Wind SpeedMPH,Gust SpeedMPH,PrecipitationIn,Events,Conditions,WindDirDegrees,DateUTC
12:30 AM,60.8,51.8,72,30.24,6.2,South,6.9,-,N/A,,Unknown,170,2013-04-04 14:00:00
1:30 AM,57.2,51.8,82,30.21,6.2,South,4.6,-,N/A,,Unknown,180,2013-04-04 15:00:00
2:30 AM,55.4,50.0,82,30.21,6.2,WSW,4.6,-,N/A,,Unknown,240,2013-04-04 16:00:00
3:30 AM,53.6,48.2,82,30.21,6.2,West,4.6,-,N/A,,Unknown,270,2013-04-04 17:00:00
4:30 AM,51.8,48.2,88,30.21,6.2,West,3.5,-,N/A,,Unknown,270,2013-04-04 18:00:00
5:30 AM,48.2,46.4,93,30.21,6.2,WNW,2.3,-,N/A,,Unknown,290,2013-04-04 19:00:00
6:30 AM,50.0,46.4,87,30.21,6.2,NW,5.8,-,N/A,,Unknown,310,2013-04-04 20:00:00
7:30 AM,48.2,46.4,93,30.24,6.2,NW,5.8,-,N/A,,Unknown,320,2013-04-04 21:00:00
8:30 AM,50.0,48.2,94,30.24,6.2,NW,4.6,-,N/A,,Unknown,320,2013-04-04 22:00:00
9:30 AM,59.0,51.8,77,30.24,6.2,West,1.2,-,N/A,,Unknown,280,2013-04-04 23:00:00
10:30 AM,69.8,55.4,60,30.24,6.2,South,4.6,-,N/A,,Unknown,170,2013-04-05 00:00:00
11:30 AM,69.8,55.4,60,30.24,6.2,SSE,6.9,-,N/A,,Unknown,160,2013-04-05 01:00:00
12:30 PM,71.6,53.6,53,30.24,6.2,SE,6.9,-,N/A,,Unknown,130,2013-04-05 02:00:00
1:30 PM,73.4,48.2,41,30.21,6.2,East,8.1,-,N/A,,Unknown,100,2013-04-05 03:00:00
2:30 PM,77.0,41.0,28,30.18,6.2,SE,8.1,-,N/A,,Unknown,140,2013-04-05 04:00:00
3:30 PM,77.0,44.6,32,30.15,6.2,SE,8.1,-,N/A,,Unknown,140,2013-04-05 05:00:00
4:30 PM,75.2,42.8,31,30.15,6.2,SSE,8.1,-,N/A,,Unknown,160,2013-04-05 06:00:00
5:30 PM,75.2,44.6,34,30.15,6.2,SE,6.9,-,N/A,,Unknown,140,2013-04-05 07:00:00
6:30 PM,73.4,48.2,41,30.15,6.2,South,5.8,-,N/A,,Unknown,180,2013-04-05 08:00:00
7:30 PM,68.0,50.0,52,30.15,6.2,SSW,4.6,-,N/A,,Unknown,200,2013-04-05 09:00:00
8:30 PM,64.4,46.4,52,30.15,6.2,Calm,Calm,-,N/A,,Unknown,0,2013-04-05 10:00:00
9:30 PM,60.8,44.6,55,30.18,6.2,West,3.5,-,N/A,,Unknown,260,2013-04-05 11:00:00
10:30 PM,60.8,50.0,68,30.18,6.2,South,4.6,-,N/A,,Unknown,190,2013-04-05 12:00:00
11:30 PM,59.0,48.2,67,30.18,6.2,WSW,3.5,-,N/A,,Unknown,240,2013-04-05 13:00:00